Regional Weather Roundup
Issued by NWS

Home | Current Version | Previous Version | Text Only | Print | Product List | Glossary On
Versions: 1 2 3 4 5 6 7 8 9 10 11 12 13 14 15 16 17 18 19 20 21 22 23 24 25 26 27 28 29 30 31 32 33 34 35 36 37 38 39 40 41 42 43 44 45 46 47 48 49 50
000
ASUS43 KMKX 281821
RWRWI

WISCONSIN REGIONAL WEATHER ROUNDUP
NATIONAL WEATHER SERVICE MILWAUKEE/SULLIVAN WI
1200 PM CST SUN DEC 28 2014

NOTE: "FAIR" INDICATES FEW OR NO CLOUDS BELOW 12,000 FEET WITH NO
SIGNIFICANT WEATHER AND/OR OBSTRUCTIONS TO VISIBILITY.

WIZ001-002-006>008-014>016-023>028-281900-
NORTHWEST WISCONSIN

CITY           SKY/WX    TMP DP  RH WIND       PRES   REMARKS
SUPERIOR ARPT  SUNNY     15  -1  50 N9        30.21S WCI   3
6HR MIN TEMP:  13; 6HR MAX TEMP:  19;

ASHLAND        MOSUNNY   17   4  56 W8        30.17R WCI   7
6HR MIN TEMP:  14; 6HR MAX TEMP:  18; 6HR PCP: TRACE;

HAYWARD        PTSUNNY   19  11  70 MISG      30.13S
6HR MIN TEMP:  16; 6HR MAX TEMP:  19; 6HR PCP: TRACE;

SIREN          CLOUDY    20  10  66 N8        30.16S WCI  10
6HR MIN TEMP:  15; 6HR MAX TEMP:  21;

CUMBERLAND     FLURRIES  19  14  79 NW5       30.13S WCI  13
RICE LAKE      FLURRIES  20  14  78 N6        30.15F WCI  12
6HR MIN TEMP:  13; 6HR MAX TEMP:  19;

CHETEK         LGT SNOW  18  13  80 CALM      30.15S
6HR MIN TEMP:  12; 6HR MAX TEMP:  18;

LADYSMITH      FLURRIES  17  14  88 CALM      30.13F
6HR MIN TEMP:   7; 6HR MAX TEMP:  16;

EAU CLAIRE     CLOUDY    16  10  77 CALM      30.15F
6HR MIN TEMP:   7; 6HR MAX TEMP:  16;

MENOMONIE      FLURRIES  17  11  78 CALM      30.17S
6HR MIN TEMP:   3; 6HR MAX TEMP:  17;

NEW RICHMOND   FLURRIES  19  13  79 N5        30.16S WCI  12
6HR MIN TEMP:   8; 6HR MAX TEMP:  19;

OSCEOLA        CLOUDY    20  15  80 N5        30.19F WCI  13
6HR MIN TEMP:  10; 6HR MAX TEMP:  20;

$$

WIZ003>005-009-010-017-018-281900-
NORTH CENTRAL WISCONSIN

CITY           SKY/WX    TMP DP  RH WIND       PRES   REMARKS
MANITOWISH WTR PTSUNNY   15   7  70 W8        30.06R WCI   4
6HR MIN TEMP:  10; 6HR MAX TEMP:  17;

ARBOR VITAE    CLOUDY    19  12  74 NW10      30.05S WCI   8
6HR MIN TEMP:  13; 6HR MAX TEMP:  19;

WOODRUFF       CLOUDY    19  12  74 NW10      30.05S WCI   8
6HR MIN TEMP:  13; 6HR MAX TEMP:  19;

RHINELANDER    PTSUNNY   16  11  80 W9        30.06S WCI   4
6HR MIN TEMP:   3; 6HR MAX TEMP:  17;

EAGLE RIVER    FLURRIES  19  10  70 W9G17     30.03S WCI   7
6HR MIN TEMP:  10; 6HR MAX TEMP:  19;

LAND O LAKES   FLURRIES  18  11  74 NW10      30.03S WCI   6
6HR MIN TEMP:  13; 6HR MAX TEMP:  19;

PHILLIPS       FLURRIES  17  12  80 CALM      30.08F
6HR MIN TEMP:   9; 6HR MAX TEMP:  17;

TOMAHAWK       CLOUDY    18  12  77 NW6       30.09R WCI  10
6HR MIN TEMP:   4; 6HR MAX TEMP:  18;

MEDFORD        LGT SNOW  13  10  89 CALM      30.09F
6HR MIN TEMP:   9; 6HR MAX TEMP:  13;

MERRILL        LGT SNOW  17  15  92 CALM      30.10S
6HR MIN TEMP:  10; 6HR MAX TEMP:  17;

$$

WIZ029-030-035-036-043>047-281900-
CENTRAL WISCONSIN

CITY           SKY/WX    TMP DP  RH WIND       PRES   REMARKS
WAUSAU         CLOUDY    17  13  84 W7        30.09F FOG     WCI   8
6HR MIN TEMP:  10; 6HR MAX TEMP:  17; 6HR PCP: TRACE;

MOSINEE        LGT SNOW  18  18 100 W3        30.12S
MARSHFIELD     CLOUDY    16  11  80 NW5       30.11F WCI   9
6HR MIN TEMP:  10; 6HR MAX TEMP:  16;

STEVENS POINT  CLOUDY    19  15  83 W5        30.12F WCI  12
6HR MIN TEMP:  11; 6HR MAX TEMP:  19;

WAUPACA        SUNNY     28  18  66 W5        30.13F WCI  23
6HR MIN TEMP:  17; 6HR MAX TEMP:  28;

WAUTOMA        SUNNY     27  18  69 W6        30.14F WCI  21
6HR MIN TEMP:  14; 6HR MAX TEMP:  26;

WISC RAPIDS    CLOUDY    23  15  71 W5        30.14F WCI  17
6HR MIN TEMP:  12; 6HR MAX TEMP:  23;

CAMP DOUGLAS   MOSUNNY   25  21  86 W5        30.14F WCI  19
$$

WIZ011>013-019>022-031-037>040-048>050-281900-
NORTHEAST WISCONSIN

CITY           SKY/WX    TMP DP  RH WIND       PRES   REMARKS
ANTIGO         FLURRIES  15  12  88 W7        30.07F WCI   6
6HR MIN TEMP:   5; 6HR MAX TEMP:  15;

SHAWANO        SUNNY     25  16  70 W3        30.12F
6HR MIN TEMP:  16; 6HR MAX TEMP:  24;

OCONTO         SUNNY     24  16  71 W8        30.11F WCI  15
6HR MIN TEMP:  16; 6HR MAX TEMP:  24;

STURGEON BAY   SUNNY     23  14  68 W13       30.11S WCI  11
6HR MIN TEMP:  19; 6HR MAX TEMP:  23;

GREEN BAY      SUNNY     26  18  71 W8        30.13S WCI  18
6HR MIN TEMP:  20; 6HR MAX TEMP:  26;

MANITOWOC      SUNNY     27  21  78 W9        30.12F WCI  18
6HR MIN TEMP:  21; 6HR MAX TEMP:  27;

APPLETON       PTSUNNY   25  16  68 NW7       30.13S WCI  17
CLINTONVILLE   SUNNY     27  18  69 W7        30.11F WCI  19
OSHKOSH        SUNNY     26  18  71 W6        30.13F WCI  19
6HR MIN TEMP:  18; 6HR MAX TEMP:  26;

$$

WIZ032>034-041-042-053>061-281900-
SOUTHWEST WISCONSIN

CITY           SKY/WX    TMP DP  RH WIND       PRES   REMARKS
LA CROSSE      SUNNY     23  14  68 VRB3      30.17F
6HR MIN TEMP:  13; 6HR MAX TEMP:  23;

SPARTA         SUNNY     25  17  72 W6        30.16F WCI  18
6HR MIN TEMP:   9; 6HR MAX TEMP:  25;

VIROQUA        MOSUNNY   26  20  79 NW6       30.12F WCI  19
6HR MIN TEMP:  13; 6HR MAX TEMP:  26;

BOSCOBEL       SUNNY     29  18  63 SW5       30.17F WCI  24
6HR MIN TEMP:  13; 6HR MAX TEMP:  29;

PRAIRIE DU CHI SUNNY     28  17  65 CALM      30.17F
6HR MIN TEMP:  15; 6HR MAX TEMP:  28;

PLATTEVILLE    SUNNY     28  20  72 CALM      30.16F
6HR MIN TEMP:  15; 6HR MAX TEMP:  28;

$$

WIZ056-057-062-063-064-067-068-281900-
SOUTH CENTRAL WISCONSIN

CITY           SKY/WX    TMP DP  RH WIND       PRES   REMARKS
REEDSBURG      SUNNY     26  18  69 CALM      30.14F
6HR MIN TEMP:  15; 6HR MAX TEMP:  27;

BARABOO/DELLS  SUNNY     27  17  66 W5        30.13F WCI  22
6HR MIN TEMP:  15; 6HR MAX TEMP:  27;

LONE ROCK      SUNNY     31  17  56 W6        30.16F WCI  25
6HR MIN TEMP:  17; 6HR MAX TEMP:  31;

MINERAL POINT  SUNNY     30  21  69 SW6       30.12F WCI  24
MADISON        MOSUNNY   29  18  63 VRB6      30.14F WCI  23
6HR MIN TEMP:  17; 6HR MAX TEMP:  29;

MIDDLETON      SUNNY     32  19  59 W8        30.13F WCI  24
6HR MIN TEMP:  18; 6HR MAX TEMP:  32;

WATERTOWN      SUNNY     29  20  69 W8        30.13F WCI  21
6HR MIN TEMP:  17; 6HR MAX TEMP:  29;

MONROE         SUNNY     30  21  69 W5        30.13F WCI  25
JANESVILLE     SUNNY     30  19  64 SW5       30.15F WCI  25
$$

WIZ051-052-058>065-066-070>072-281900-
SOUTHEAST WISCONSIN

CITY           SKY/WX    TMP DP  RH WIND       PRES   REMARKS
MILWAUKEE      MOSUNNY   31  16  54 W7        30.13F WCI  24
6HR MIN TEMP:  22; 6HR MAX TEMP:  31;

WAUKESHA       SUNNY     28  18  64 W9        30.15S WCI  20
MILWAUKEE/TIMM SUNNY     30  18  59 W10       30.14F WCI  21
RACINE         SUNNY     31  17  56 W6        30.15F WCI  25
6HR MIN TEMP:  22; 6HR MAX TEMP:  31;

BURLINGTON     SUNNY     30  19  64 W7        30.13F WCI  23
6HR MIN TEMP:  17; 6HR MAX TEMP:  30;

KENOSHA        SUNNY     31  18  58 W10       30.14F WCI  22
6HR MIN TEMP:  21; 6HR MAX TEMP:  31;

FOND DU LAC    SUNNY     27  17  66 W7        30.13F WCI  19
6HR MIN TEMP:  19; 6HR MAX TEMP:  27; 6HR PCP: TRACE;

SHEBOYGAN      SUNNY     28  18  66 NW12      30.12F WCI  18
6HR MIN TEMP:  21; 6HR MAX TEMP:  29;

WEST BEND      SUNNY     30  18  59 W9        30.12F WCI  22
JUNEAU         SUNNY     26  18  73 W7        30.14F WCI  18
6HR MIN TEMP:  16; 6HR MAX TEMP:  26;

$$

LSZ147-162-281900-
LAKE SUPERIOR

STATION/POSITION TIME  TEMP    WIND        PRES    WAVE
                       AIR SEA DIR/SP/G            HT/PER
                 (UTC) (F)     (DEG/KT/KT) (MB)    (FT/S)
DEVILS ISLAND    1800   12     310/ 13/ 16 1023.3S
PORT WING        1700   14     310/ 11/ 17 1022.7R
SAXON HARBOR     1700   19     310/ 13/ 18 1021.0R
$$

LMZ867-665-643>646-281900-
LAKE MICHIGAN

STATION/POSITION TIME  TEMP    WIND        PRES    WAVE
                       AIR SEA DIR/SP/G            HT/PER


USA.gov is the U.S. government's official web portal to all federal, state and local government web resources and services.